Flag for Canada Weather past 2 weeks in Halifax, Nova Scotia, Canada

Now
77 °F

Partly sunny.


Feels Like: 79 °F
Forecast: N/A
Wind: 10 mph from Southwest

Location: Halifax International Airport

Current Time: Aug 29, 2015 at 6:10:05 PM

Latest Report: Aug 29, 2015 at 5:00 PM


Visibility: 15 mi

Pressure: 30.06 "Hg

Humidity: 51%

Dew point: 57 °F

Location of HalifaxLocation

Historic Weather in Halifax — Graph

°F

Halifax temperature yesterday

Maximum temperature yesterday: 75 °F (at 3:00 PM)
Minimum temperature yesterday: 59 °F (at 4:00 AM)
Average temperature yesterday: 66 °F

Past Weeks' High & Low Weather Summary

 TemperatureHumidityPressure
High84 °F (Aug 17, 2:00 PM)100% (Aug 18, 3:00 AM)30.26 "Hg (Aug 18, 3:00 AM)
Low59 °F (Aug 15, 4:00 AM)42% (Aug 29, 4:00 PM)29.83 "Hg (Aug 27, 6:00 PM)
Average70 °F84%30.06 "Hg
* Reported Aug 14 5:00 PM — Aug 29 5:00 PM, Halifax, Weather by CustomWeather, © 2015

Note: Actual official high and low records may vary slightly from our data, if they occured in-between our weather recording intervals... More about our weather records

Advertising

Halifax weather history for previous 24 hours

 ConditionsComfort  
Time TempWeatherWind HumidityBarometerVisibility
5:00 PM
Sat, Aug 29
77 °FPartly sunny.10 mph51%30.06 "Hg15 mi
4:00 PM79 °FPartly sunny.14 mph42%30.07 "Hg15 mi
3:00 PM79 °FPartly sunny.12 mph45%30.09 "Hg15 mi
2:00 PM77 °FPartly sunny.9 mph47%30.10 "Hg15 mi
1:00 PM75 °FPartly sunny.9 mph54%30.11 "Hg15 mi
12:00 PM75 °FScattered clouds.10 mph54%30.12 "Hg15 mi
11:00 AM72 °FScattered clouds.7 mph65%30.13 "Hg15 mi
10:00 AM68 °FScattered clouds.7 mph69%30.12 "Hg15 mi
9:00 AM66 °FScattered clouds.6 mph73%30.11 "Hg15 mi
8:00 AM63 °FPassing clouds.6 mph83%30.11 "Hg15 mi
7:00 AM61 °FPassing clouds.7 mph83%30.11 "Hg15 mi
6:00 AM61 °FClear.8 mph83%30.09 "Hg15 mi
5:00 AM61 °FClear.7 mph83%30.09 "Hg15 mi
4:00 AM61 °FClear.6 mph77%30.09 "Hg15 mi
3:00 AM61 °FClear.8 mph83%30.09 "Hg15 mi
2:00 AM61 °FClear.7 mph83%30.09 "Hg15 mi
1:00 AM61 °FClear.8 mph83%30.09 "Hg15 mi
12:00 AM63 °FClear.7 mph77%30.08 "Hg15 mi
11:00 PM
Fri, Aug 28
63 °FClear.9 mph77%30.08 "Hg15 mi
10:00 PM64 °FClear.8 mph73%30.07 "Hg15 mi
9:00 PM66 °FPassing clouds.7 mph68%30.06 "Hg15 mi
8:00 PM68 °FPassing clouds.7 mph64%30.04 "Hg15 mi
7:00 PM72 °FPassing clouds.9 mph53%30.02 "Hg15 mi
6:00 PM73 °FPassing clouds.12 mph47%30.01 "Hg15 mi
Weather by CustomWeather, © 2015

See weather overviewHow to use our weather pages